Hourly Weather Kivioli

Today, 2 August, Monday

Time Temperature Precipitation Wind Pressure Humidity
00:00 +13°C° 0 mm 3 mps 748 mmHg 88%
01:00 +13°C° 0 mm 3 mps 748 mmHg 87%
02:00 +13°C° 0 mm 3 mps 748 mmHg 85%
03:00 +13°C° 0 mm 3 mps 748 mmHg 86%
04:00 +13°C° 0 mm 3 mps 747 mmHg 87%
05:00 +13°C° 0 mm 3 mps 747 mmHg 87%
06:00 +16°C° 0 mm 3 mps 747 mmHg 82%
07:00 +17°C° 0 mm 3 mps 747 mmHg 76%
08:00 +19°C° 0 mm 3 mps 747 mmHg 70%
09:00 +19°C° 0 mm 2 mps 747 mmHg 67%
10:00 +20°C° 0 mm 2 mps 746 mmHg 65%
11:00 +21°C° 0 mm 1 mps 746 mmHg 62%
12:00 +20°C° 0.3 mm 2 mps 746 mmHg 68%
13:00 +19°C° 0.3 mm 2 mps 745 mmHg 73%
14:00 +18°C° 0.3 mm 3 mps 744 mmHg 79%
15:00 +18°C° 1.7 mm 3 mps 744 mmHg 84%
16:00 +17°C° 1.7 mm 3 mps 744 mmHg 90%
17:00 +16°C° 1.7 mm 3 mps 743 mmHg 95%
18:00 +16°C° 0.6 mm 3 mps 743 mmHg 95%
19:00 +14°C° 0.6 mm 3 mps 743 mmHg 95%
20:00 +14°C° 0.6 mm 3 mps 743 mmHg 95%
21:00 +14°C° 0.1 mm 3 mps 743 mmHg 95%
22:00 +14°C° 0.1 mm 3 mps 743 mmHg 95%
23:00 +13°C° 0.1 mm 4 mps 743 mmHg 95%

Tomorrow, 3 August, Tuesday

Time Temperature Precipitation Wind Pressure Humidity
00:00 +13°C° 0.1 mm 4 mps 743 mmHg 94%
01:00 +13°C° 0.1 mm 5 mps 743 mmHg 94%
02:00 +13°C° 0.1 mm 5 mps 743 mmHg 94%
03:00 +13°C° 0.1 mm 5 mps 743 mmHg 94%
04:00 +12°C° 0.1 mm 5 mps 743 mmHg 95%
05:00 +12°C° 0.1 mm 5 mps 743 mmHg 95%
06:00 +13°C° 0 mm 6 mps 744 mmHg 91%
07:00 +14°C° 0 mm 6 mps 744 mmHg 86%
08:00 +16°C° 0 mm 6 mps 744 mmHg 82%
09:00 +16°C° 0.2 mm 6 mps 745 mmHg 79%
10:00 +16°C° 0.2 mm 7 mps 745 mmHg 77%
11:00 +16°C° 0.2 mm 7 mps 746 mmHg 74%
12:00 +17°C° 0.1 mm 7 mps 746 mmHg 68%
13:00 +17°C° 0.1 mm 7 mps 747 mmHg 62%
14:00 +17°C° 0.1 mm 7 mps 748 mmHg 56%
15:00 +18°C° 0 mm 7 mps 748 mmHg 54%
16:00 +19°C° 0 mm 6 mps 749 mmHg 52%
17:00 +19°C° 0 mm 6 mps 749 mmHg 49%
18:00 +17°C° 0 mm 5 mps 750 mmHg 55%
19:00 +16°C° 0 mm 5 mps 750 mmHg 61%
20:00 +14°C° 0 mm 4 mps 751 mmHg 67%
21:00 +13°C° 0 mm 4 mps 751 mmHg 72%
22:00 +12°C° 0 mm 4 mps 751 mmHg 76%
23:00 +11°C° 0 mm 4 mps 752 mmHg 81%

Day after tomorrow, 4 August, Wednesday

Time Temperature Precipitation Wind Pressure Humidity
00:00 +11°C° 0 mm 4 mps 752 mmHg 82%
01:00 +10°C° 0 mm 4 mps 753 mmHg 84%
02:00 +10°C° 0 mm 4 mps 753 mmHg 85%
03:00 +10°C° 0 mm 4 mps 753 mmHg 86%
04:00 +10°C° 0 mm 3 mps 754 mmHg 87%
05:00 +10°C° 0 mm 3 mps 754 mmHg 87%
06:00 +12°C° 0 mm 3 mps 754 mmHg 79%
07:00 +14°C° 0 mm 3 mps 755 mmHg 70%
08:00 +17°C° 0 mm 3 mps 755 mmHg 61%
09:00 +18°C° 0 mm 3 mps 755 mmHg 55%
10:00 +19°C° 0 mm 3 mps 755 mmHg 49%
11:00 +21°C° 0 mm 3 mps 755 mmHg 43%
12:00 +20°C° 0 mm 2 mps 756 mmHg 46%
13:00 +19°C° 0 mm 2 mps 756 mmHg 50%
14:00 +20°C° 0 mm 1 mps 756 mmHg 53%
15:00 +20°C° 0 mm 1 mps 756 mmHg 55%
16:00 +20°C° 0 mm 1 mps 756 mmHg 56%
17:00 +20°C° 0 mm 1 mps 756 mmHg 58%
18:00 +19°C° 0 mm 1 mps 756 mmHg 61%
19:00 +18°C° 0 mm 1 mps 756 mmHg 64%
20:00 +16°C° 0 mm 2 mps 756 mmHg 67%
21:00 +16°C° 0 mm 2 mps 757 mmHg 68%
22:00 +16°C° 0 mm 2 mps 757 mmHg 69%
23:00 +15°C° 0 mm 2 mps 757 mmHg 71%

5 August, Thursday

Time Temperature Precipitation Wind Pressure Humidity
00:00 +14°C° 0.1 mm 2 mps 757 mmHg 75%
01:00 +14°C° 0.1 mm 1 mps 757 mmHg 79%
02:00 +13°C° 0.1 mm 1 mps 757 mmHg 83%
03:00 +13°C° 0 mm 1 mps 757 mmHg 84%
04:00 +13°C° 0 mm 2 mps 757 mmHg 84%
05:00 +13°C° 0 mm 2 mps 757 mmHg 84%
06:00 +14°C° 0 mm 2 mps 757 mmHg 83%
07:00 +15°C° 0 mm 2 mps 757 mmHg 81%
08:00 +16°C° 0 mm 2 mps 757 mmHg 80%
09:00 +17°C° 0 mm 2 mps 757 mmHg 71%
10:00 +19°C° 0 mm 2 mps 757 mmHg 63%
11:00 +21°C° 0 mm 2 mps 757 mmHg 54%
12:00 +23°C° 0 mm 2 mps 757 mmHg 50%
13:00 +23°C° 0 mm 2 mps 757 mmHg 46%
14:00 +24°C° 0 mm 2 mps 757 mmHg 42%
15:00 +24°C° 0 mm 2 mps 757 mmHg 45%
16:00 +23°C° 0 mm 2 mps 757 mmHg 49%
17:00 +21°C° 0 mm 2 mps 757 mmHg 53%
18:00 +20°C° 0 mm 2 mps 757 mmHg 54%
19:00 +19°C° 0 mm 2 mps 757 mmHg 56%
20:00 +18°C° 0 mm 2 mps 757 mmHg 58%
21:00 +17°C° 0 mm 2 mps 757 mmHg 60%
22:00 +17°C° 0 mm 2 mps 757 mmHg 63%
23:00 +16°C° 0 mm 2 mps 757 mmHg 65%

6 August, Friday

Time Temperature Precipitation Wind Pressure Humidity
00:00 +14°C° 0 mm 3 mps 757 mmHg 68%
01:00 +14°C° 0 mm 3 mps 757 mmHg 71%
02:00 +13°C° 0 mm 3 mps 757 mmHg 74%
03:00 +13°C° 0 mm 3 mps 757 mmHg 74%
04:00 +13°C° 0 mm 3 mps 757 mmHg 75%
05:00 +13°C° 0 mm 4 mps 757 mmHg 75%
06:00 +15°C° 0 mm 4 mps 756 mmHg 69%
07:00 +16°C° 0 mm 5 mps 756 mmHg 63%
08:00 +19°C° 0 mm 5 mps 756 mmHg 58%
09:00 +21°C° 0 mm 6 mps 755 mmHg 52%
10:00 +22°C° 0 mm 6 mps 755 mmHg 47%
11:00 +23°C° 0 mm 7 mps 754 mmHg 42%
12:00 +23°C° 0 mm 7 mps 754 mmHg 43%
13:00 +23°C° 0 mm 7 mps 754 mmHg 45%
14:00 +23°C° 0 mm 7 mps 753 mmHg 46%
15:00 +22°C° 0.2 mm 7 mps 753 mmHg 56%
16:00 +20°C° 0.2 mm 7 mps 752 mmHg 67%
17:00 +17°C° 0.2 mm 7 mps 752 mmHg 77%
18:00 +16°C° 0.9 mm 8 mps 751 mmHg 83%
19:00 +16°C° 0.9 mm 8 mps 751 mmHg 88%
20:00 +15°C° 0.9 mm 9 mps 750 mmHg 94%
21:00 +15°C° 0.5 mm 8 mps 750 mmHg 95%
22:00 +16°C° 0.5 mm 8 mps 749 mmHg 96%
23:00 +16°C° 0.5 mm 7 mps 749 mmHg 97%

7 August, Saturday

Time Temperature Precipitation Wind Pressure Humidity
00:00 +16°C° 0.1 mm 7 mps 749 mmHg 97%
01:00 +16°C° 0.1 mm 7 mps 748 mmHg 96%
02:00 +16°C° 0.1 mm 7 mps 748 mmHg 96%
03:00 +16°C° 0.1 mm 7 mps 748 mmHg 95%
04:00 +17°C° 0.1 mm 6 mps 748 mmHg 94%
05:00 +17°C° 0.1 mm 6 mps 747 mmHg 93%
06:00 +17°C° 0.1 mm 6 mps 747 mmHg 92%
07:00 +17°C° 0.1 mm 6 mps 748 mmHg 90%
08:00 +17°C° 0.1 mm 6 mps 748 mmHg 89%
09:00 +17°C° 0.1 mm 6 mps 748 mmHg 85%
10:00 +19°C° 0.1 mm 6 mps 748 mmHg 81%
11:00 +19°C° 0.1 mm 6 mps 748 mmHg 77%
12:00 +20°C° 0.1 mm 6 mps 749 mmHg 76%
13:00 +21°C° 0.1 mm 6 mps 749 mmHg 74%
14:00 +21°C° 0.1 mm 6 mps 749 mmHg 72%
15:00 +21°C° 0.3 mm 6 mps 749 mmHg 73%
16:00 +21°C° 0.3 mm 6 mps 750 mmHg 73%
17:00 +21°C° 0.3 mm 6 mps 750 mmHg 73%
18:00 +21°C° 0 mm 5 mps 751 mmHg 76%
19:00 +20°C° 0 mm 4 mps 751 mmHg 78%
20:00 +19°C° 0 mm 4 mps 752 mmHg 81%
21:00 +18°C° 0 mm 4 mps 752 mmHg 84%
22:00 +17°C° 0 mm 3 mps 753 mmHg 87%
23:00 +16°C° 0 mm 3 mps 753 mmHg 90%
Show more